When you browse on this site, cookies collect data to enhance your experience and personalize the content and advertising you see.
Visit our Privacy Policy to learn more. By continuing to use the site, you agree to this use of cookies and data.
  • în România
  • Lista ţărilor
  • Pe 7 zile
  • Temperatura apei
  • Hartă satelitară
  • Meteo pe hartă
  • Widget-uri
  • user-avatar
    Intrare

    Meteo pe oră la Wronin

    Astăzi, 20 Februarie, Miercuri

    Timp Temperatura Precipitaţii Vânt Presiune Umiditate
    00:00 +5°C° 0.4 mm 4 m/s 739 mmHg 83%
    01:00 +5°C° 0.4 mm 5 m/s 739 mmHg 85%
    02:00 +3°C° 0 mm 5 m/s 739 mmHg 86%
    03:00 +4°C° 0 mm 4 m/s 739 mmHg 88%
    04:00 +3°C° 0 mm 4 m/s 739 mmHg 89%
    05:00 +2°C° 0 mm 5 m/s 739 mmHg 88%
    06:00 +2°C° 0 mm 5 m/s 740 mmHg 87%
    07:00 +1°C° 0 mm 5 m/s 740 mmHg 86%
    08:00 +2°C° 0 mm 5 m/s 740 mmHg 82%
    09:00 +3°C° 0 mm 6 m/s 741 mmHg 78%
    10:00 +3°C° 0 mm 6 m/s 741 mmHg 73%
    11:00 +4°C° 0 mm 6 m/s 741 mmHg 71%
    12:00 +4°C° 0 mm 6 m/s 741 mmHg 69%
    13:00 +4°C° 0 mm 6 m/s 741 mmHg 67%
    14:00 +4°C° 0 mm 6 m/s 742 mmHg 67%
    15:00 +4°C° 0 mm 6 m/s 742 mmHg 67%
    16:00 +5°C° 0 mm 5 m/s 742 mmHg 67%
    17:00 +5°C° 0.1 mm 5 m/s 742 mmHg 71%
    18:00 +4°C° 0.1 mm 4 m/s 743 mmHg 74%
    19:00 +4°C° 0.1 mm 3 m/s 743 mmHg 77%
    20:00 +4°C° 0.1 mm 3 m/s 743 mmHg 78%
    21:00 +3°C° 0.1 mm 3 m/s 743 mmHg 78%
    22:00 +3°C° 0.1 mm 4 m/s 744 mmHg 79%
    23:00 +3°C° 0 mm 4 m/s 744 mmHg 79%

    Mâine, 21 Februarie, Joi

    Timp Temperatura Precipitaţii Vânt Presiune Umiditate
    00:00 +3°C° 0 mm 4 m/s 744 mmHg 80%
    01:00 +3°C° 0 mm 4 m/s 744 mmHg 80%
    02:00 +3°C° 0 mm 4 m/s 744 mmHg 81%
    03:00 +3°C° 0 mm 4 m/s 744 mmHg 81%
    04:00 +3°C° 0 mm 4 m/s 744 mmHg 82%
    05:00 +3°C° 0 mm 4 m/s 744 mmHg 81%
    06:00 +3°C° 0 mm 4 m/s 744 mmHg 80%
    07:00 +3°C° 0 mm 4 m/s 744 mmHg 79%
    08:00 +3°C° 0 mm 5 m/s 744 mmHg 74%
    09:00 +5°C° 0 mm 5 m/s 744 mmHg 69%
    10:00 +5°C° 0 mm 5 m/s 744 mmHg 64%
    11:00 +5°C° 0.2 mm 6 m/s 744 mmHg 64%
    12:00 +5°C° 0.2 mm 6 m/s 743 mmHg 64%
    13:00 +5°C° 0.2 mm 6 m/s 743 mmHg 64%
    14:00 +5°C° 0.6 mm 6 m/s 742 mmHg 66%
    15:00 +5°C° 0.6 mm 6 m/s 742 mmHg 69%
    16:00 +5°C° 0.6 mm 6 m/s 742 mmHg 72%
    17:00 +4°C° 0.5 mm 7 m/s 742 mmHg 74%
    18:00 +4°C° 0.5 mm 7 m/s 742 mmHg 76%
    19:00 +4°C° 0.5 mm 7 m/s 742 mmHg 78%
    20:00 +4°C° 0.4 mm 7 m/s 742 mmHg 79%
    21:00 +4°C° 0.4 mm 7 m/s 741 mmHg 81%
    22:00 +4°C° 0.4 mm 7 m/s 741 mmHg 82%
    23:00 +4°C° 0.4 mm 6 m/s 741 mmHg 84%

    Poimâine, 22 Februarie, Vineri

    Timp Temperatura Precipitaţii Vânt Presiune Umiditate
    00:00 +4°C° 0.4 mm 6 m/s 741 mmHg 86%
    01:00 +4°C° 0.4 mm 6 m/s 741 mmHg 88%
    02:00 +4°C° 0.3 mm 6 m/s 741 mmHg 89%
    03:00 +4°C° 0.3 mm 6 m/s 740 mmHg 89%
    04:00 +4°C° 0.3 mm 6 m/s 740 mmHg 89%
    05:00 +4°C° 0.9 mm 6 m/s 741 mmHg 88%
    06:00 +4°C° 0.9 mm 7 m/s 741 mmHg 87%
    07:00 +3°C° 0.9 mm 7 m/s 742 mmHg 86%
    08:00 +2°C° 0.3 mm 7 m/s 743 mmHg 82%
    09:00 +1°C° 0.3 mm 6 m/s 744 mmHg 78%
    10:00 -2°C° 0.3 mm 6 m/s 745 mmHg 75%
    11:00 -2°C° 0 mm 6 m/s 746 mmHg 68%
    12:00 -1°C° 0 mm 6 m/s 747 mmHg 62%
    13:00 0°C° 0 mm 5 m/s 748 mmHg 56%
    14:00 -1°C° 0 mm 5 m/s 749 mmHg 55%
    15:00 -1°C° 0 mm 5 m/s 749 mmHg 54%
    16:00 -3°C° 0 mm 6 m/s 750 mmHg 53%
    17:00 -4°C° 0 mm 5 m/s 750 mmHg 56%
    18:00 -4°C° 0 mm 5 m/s 751 mmHg 58%
    19:00 -5°C° 0 mm 5 m/s 752 mmHg 60%
    20:00 -6°C° 0 mm 5 m/s 752 mmHg 58%
    21:00 -6°C° 0 mm 5 m/s 753 mmHg 56%
    22:00 -5°C° 0 mm 4 m/s 753 mmHg 55%
    23:00 -7°C° 0 mm 4 m/s 754 mmHg 52%

    23 Februarie, Sâmbătă

    Timp Temperatura Precipitaţii Vânt Presiune Umiditate
    00:00 -7°C° 0 mm 4 m/s 754 mmHg 50%
    01:00 -7°C° 0 mm 4 m/s 755 mmHg 47%
    02:00 -6°C° 0 mm 3 m/s 755 mmHg 46%
    03:00 -6°C° 0 mm 3 m/s 755 mmHg 44%
    04:00 -6°C° 0 mm 3 m/s 755 mmHg 43%
    05:00 -5°C° 0 mm 2 m/s 755 mmHg 43%
    06:00 -5°C° 0 mm 2 m/s 755 mmHg 43%
    07:00 -5°C° 0 mm 2 m/s 756 mmHg 43%
    08:00 -4°C° 0 mm 2 m/s 756 mmHg 38%
    09:00 -4°C° 0 mm 2 m/s 756 mmHg 34%
    10:00 -4°C° 0 mm 3 m/s 756 mmHg 30%
    11:00 -2°C° 0 mm 3 m/s 756 mmHg 28%
    12:00 -1°C° 0 mm 2 m/s 756 mmHg 25%
    13:00 +1°C° 0 mm 2 m/s 756 mmHg 23%
    14:00 +1°C° 0 mm 2 m/s 755 mmHg 25%
    15:00 +1°C° 0 mm 2 m/s 755 mmHg 26%
    16:00 -1°C° 0 mm 2 m/s 755 mmHg 28%
    17:00 +1°C° 0 mm 1 m/s 755 mmHg 31%
    18:00 0°C° 0 mm 1 m/s 755 mmHg 34%
    19:00 -1°C° 0 mm 1 m/s 755 mmHg 37%
    20:00 -1°C° 0 mm 1 m/s 755 mmHg 38%
    21:00 -1°C° 0 mm 1 m/s 755 mmHg 38%
    22:00 -2°C° 0 mm 1 m/s 755 mmHg 38%
    23:00 -2°C° 0 mm 1 m/s 755 mmHg 38%

    24 Februarie, Duminică

    Timp Temperatura Precipitaţii Vânt Presiune Umiditate
    00:00 -2°C° 0 mm 1 m/s 755 mmHg 38%
    01:00 -4°C° 0 mm 2 m/s 754 mmHg 38%
    02:00 -4°C° 0 mm 2 m/s 754 mmHg 38%
    03:00 -3°C° 0 mm 2 m/s 754 mmHg 38%
    04:00 -3°C° 0 mm 2 m/s 753 mmHg 38%
    05:00 -3°C° 0 mm 2 m/s 753 mmHg 37%
    06:00 -3°C° 0 mm 2 m/s 753 mmHg 35%
    07:00 -2°C° 0 mm 2 m/s 753 mmHg 34%
    08:00 -1°C° 0 mm 3 m/s 752 mmHg 32%
    09:00 -1°C° 0 mm 3 m/s 752 mmHg 30%
    10:00 0°C° 0 mm 3 m/s 752 mmHg 28%
    11:00 +2°C° 0 mm 3 m/s 752 mmHg 28%
    12:00 +3°C° 0 mm 4 m/s 751 mmHg 27%
    13:00 +4°C° 0 mm 4 m/s 751 mmHg 27%
    14:00 +4°C° 0 mm 3 m/s 751 mmHg 33%
    15:00 +3°C° 0 mm 3 m/s 750 mmHg 38%
    16:00 +4°C° 0 mm 2 m/s 750 mmHg 44%
    17:00 +3°C° 0 mm 2 m/s 750 mmHg 48%
    18:00 +2°C° 0 mm 2 m/s 750 mmHg 51%
    19:00 +1°C° 0 mm 2 m/s 750 mmHg 55%
    20:00 +1°C° 0 mm 2 m/s 750 mmHg 57%
    21:00 +1°C° 0 mm 2 m/s 750 mmHg 59%
    22:00 +2°C° 0 mm 1 m/s 750 mmHg 60%
    23:00 +2°C° 0 mm 1 m/s 750 mmHg 61%

    25 Februarie, Luni

    Timp Temperatura Precipitaţii Vânt Presiune Umiditate
    00:00 +2°C° 0 mm 1 m/s 750 mmHg 62%
    01:00 +2°C° 0 mm 1 m/s 750 mmHg 63%
    02:00 +1°C° 0 mm 1 m/s 750 mmHg 63%
    03:00 +1°C° 0 mm 1 m/s 750 mmHg 64%
    04:00 +1°C° 0 mm 1 m/s 749 mmHg 64%
    05:00 -1°C° 0 mm 2 m/s 749 mmHg 65%
    06:00 -1°C° 0 mm 2 m/s 749 mmHg 66%
    07:00 -1°C° 0 mm 2 m/s 749 mmHg 67%
    08:00 +2°C° 0 mm 2 m/s 749 mmHg 63%
    09:00 +2°C° 0 mm 3 m/s 749 mmHg 59%
    10:00 +3°C° 0 mm 3 m/s 750 mmHg 55%
    11:00 +4°C° 0 mm 3 m/s 749 mmHg 54%
    12:00 +5°C° 0 mm 3 m/s 749 mmHg 54%
    13:00 +7°C° 0 mm 3 m/s 749 mmHg 53%
    14:00 +7°C° 0 mm 3 m/s 749 mmHg 55%
    15:00 +6°C° 0 mm 4 m/s 748 mmHg 58%
    16:00 +6°C° 0 mm 4 m/s 748 mmHg 61%
    17:00 +5°C° 0 mm 3 m/s 749 mmHg 68%
    18:00 +3°C° 0 mm 3 m/s 749 mmHg 75%
    19:00 +2°C° 0 mm 3 m/s 749 mmHg 82%
    20:00 +3°C° 0 mm 2 m/s 749 mmHg 86%
    21:00 +3°C° 0 mm 2 m/s 749 mmHg 89%
    22:00 +2°C° 0 mm 2 m/s 749 mmHg 93%
    23:00 +2°C° 0 mm 2 m/s 749 mmHg 93%
    Arată mai mult